PBO Station Position Time Series. Reference Frame : NAM14
Format Version,1.1.1
4-character ID,AB27
Station name,Kobuk_VallAK2007
Begin Date, 2007-07-28
End Date, 2023-06-26
Release Date, 2023-06-27
Reference position, 67.0558858754 North Latitude, -156.9048893184 East Longitude, 508.11784 meters elevation,
Date, North (mm), East (mm), Vertical (mm), North Std. Deviation (mm), East Std. Deviation (mm),              Vertical Std. Deviation (mm), Quality,
2007-07-28,0.00, 0.00, 0.00, 2.07, 1.48, 7.70, repro,
2007-07-29,1.07, 0.86, -4.76, 2.15, 1.54, 7.89, repro,
2007-07-30,-0.08, 0.94, -4.10, 2.12, 1.49, 7.77, repro,
2007-07-31,-1.81, -0.48, 1.11, 2.09, 1.47, 7.70, repro,
2007-08-01,-2.23, 0.25, -5.56, 2.17, 1.56, 8.02, repro,
2007-08-02,0.44, -0.20, -1.60, 2.10, 1.50, 7.81, repro,
2007-08-03,-0.58, 0.47, 0.26, 2.08, 1.49, 7.74, repro,
2007-08-04,-1.39, -0.62, 1.06, 2.07, 1.48, 7.71, repro,
2007-08-05,0.18, -0.38, -5.03, 2.07, 1.46, 7.69, repro,
2007-08-06,0.38, -0.13, 5.10, 2.15, 1.52, 7.90, repro,
2007-08-07,1.63, -0.56, -0.63, 2.23, 1.59, 8.15, repro,
2007-08-08,0.26, -0.48, -1.30, 2.08, 1.49, 7.74, repro,
2007-08-09,-1.16, -0.31, -5.38, 2.08, 1.48, 7.72, repro,
2007-08-10,0.17, -0.77, -2.52, 2.25, 1.60, 8.16, repro,
2007-08-11,0.06, -0.83, -4.01, 2.13, 1.52, 7.84, repro,
2007-08-12,-0.32, -0.18, -6.97, 2.12, 1.51, 7.86, repro,
2007-08-13,-1.48, -0.13, -4.65, 2.08, 1.48, 7.73, repro,
2007-08-14,1.18, -0.84, -4.88, 2.22, 1.61, 8.30, repro,
2007-08-15,-0.76, -0.19, -3.39, 2.24, 1.59, 8.28, repro,
2007-08-16,-0.62, 0.38, 0.32, 2.16, 1.53, 8.10, repro,
2007-08-17,-2.53, 0.26, 3.54, 2.16, 1.52, 8.10, repro,
2007-08-18,-1.78, -0.97, 7.12, 2.18, 1.56, 8.08, repro,
2007-08-19,0.10, 0.41, 17.46, 2.20, 1.57, 8.16, repro,
2007-08-20,-0.72, -0.21, 3.92, 2.14, 1.53, 8.07, repro,
2007-08-21,0.72, -1.66, 4.58, 2.15, 1.52, 8.06, repro,
2007-08-22,-0.41, 0.19, -0.93, 2.18, 1.55, 8.08, repro,
2007-08-23,-3.05, 0.46, 6.44, 2.10, 1.49, 7.89, repro,
2007-08-24,-0.57, -1.80, 8.80, 2.22, 1.57, 8.39, repro,
2007-08-25,-0.97, -0.12, 6.62, 2.19, 1.56, 8.12, repro,
2007-08-26,-0.99, 0.41, 9.08, 2.25, 1.60, 8.35, repro,
2007-08-27,-0.55, 0.85, -0.78, 2.23, 1.60, 8.25, repro,
2007-08-28,-1.18, 2.09, 6.45, 2.21, 1.58, 8.19, repro,
2007-08-29,-0.72, -1.66, 1.10, 2.16, 1.54, 8.09, repro,
2007-08-30,0.82, -0.35, -0.03, 2.30, 1.67, 8.19, repro,
2007-08-31,-1.24, -0.23, 3.42, 2.17, 1.54, 8.09, repro,
2007-09-01,-0.07, -0.76, -1.68, 2.49, 1.77, 9.00, repro,
2007-09-02,-0.26, 0.13, -2.00, 2.23, 1.58, 8.12, repro,
2007-09-03,-0.27, 0.43, -1.03, 2.18, 1.56, 8.08, repro,
2007-09-04,-0.97, 0.24, 0.55, 2.18, 1.55, 8.11, repro,
2007-09-05,-1.20, -0.00, 3.95, 2.27, 1.60, 8.41, repro,
2007-09-06,-2.55, -0.53, -2.26, 2.29, 1.59, 8.73, repro,
2007-09-07,-0.87, -0.06, -4.37, 2.17, 1.55, 8.10, repro,
2007-09-08,0.06, 0.07, -4.60, 2.20, 1.58, 8.13, repro,
2007-09-09,-4.76, -0.35, -6.24, 2.21, 1.58, 8.18, repro,
2007-09-10,-1.55, -0.38, -6.68, 2.16, 1.53, 8.05, repro,
2007-09-11,-1.70, -1.08, 0.09, 2.18, 1.54, 8.11, repro,
2007-09-12,-3.08, 1.25, -8.78, 2.18, 1.54, 8.11, repro,
2007-09-13,-3.65, -0.40, -11.83, 2.14, 1.55, 8.02, repro,
2007-09-14,-3.23, 0.74, -8.72, 2.17, 1.55, 8.09, repro,
2007-09-15,-1.45, 0.43, -4.28, 2.23, 1.61, 8.17, repro,
2007-09-16,-0.62, -0.22, 1.56, 2.18, 1.55, 8.10, repro,
2007-09-17,-0.96, -0.55, 2.19, 2.18, 1.53, 8.16, repro,
2007-09-18,-0.22, -0.04, -4.74, 2.13, 1.52, 7.85, repro,
2007-09-19,-1.18, -0.22, -0.48, 2.09, 1.50, 7.81, repro,
2007-09-20,-2.80, 0.85, 0.63, 2.13, 1.50, 7.85, repro,
2007-09-21,-1.73, -0.61, 0.89, 2.10, 1.49, 7.72, repro,
2007-09-22,-0.62, -0.19, -1.97, 2.15, 1.53, 7.92, repro,
2007-09-23,-1.37, 0.46, 0.84, 2.17, 1.53, 7.85, repro,
2007-09-24,-0.74, -1.05, 2.78, 2.14, 1.51, 8.00, repro,
2007-09-25,-0.51, -0.22, 1.27, 2.12, 1.50, 7.93, repro,
2007-09-26,-1.32, -0.75, 1.80, 2.09, 1.49, 7.73, repro,
2007-09-27,1.06, -0.46, 4.78, 2.17, 1.52, 7.95, repro,
2007-09-28,3.00, -0.46, 1.80, 2.16, 1.54, 7.88, repro,
2007-09-29,0.27, 0.83, 7.19, 2.22, 1.59, 8.10, repro,
2007-09-30,-0.35, 0.42, 6.49, 2.12, 1.51, 7.80, repro,
2007-10-01,-1.90, 0.12, 11.20, 2.15, 1.51, 7.89, repro,
2007-10-02,-1.76, -0.94, 2.11, 2.19, 1.54, 7.99, repro,
2007-10-03,-2.29, -1.55, -4.86, 2.32, 1.63, 8.30, repro,
2007-10-04,0.95, -1.12, -3.36, 2.15, 1.51, 7.86, repro,
2007-10-05,-0.27, -0.51, 10.08, 2.14, 1.50, 7.90, repro,
2007-10-06,-1.80, -0.01, 3.08, 2.12, 1.50, 7.87, repro,
2007-10-07,-0.94, -0.04, 2.64, 2.10, 1.48, 7.78, repro,
2007-10-08,-1.27, -0.06, -2.77, 2.24, 1.58, 8.26, repro,
2007-10-09,-0.84, -0.48, 1.67, 2.27, 1.61, 8.29, repro,
2007-10-10,0.08, -0.33, 3.58, 2.18, 1.57, 8.22, repro,
2007-10-11,-0.82, -0.36, 5.74, 2.11, 1.51, 7.87, repro,
2007-10-12,-0.73, -0.19, 6.33, 2.13, 1.51, 7.90, repro,
2007-10-13,0.20, 0.23, 4.34, 2.14, 1.50, 7.91, repro,
2007-10-14,-0.46, 0.25, 8.09, 2.18, 1.55, 8.00, repro,
2007-10-15,-0.04, -0.82, 6.96, 2.10, 1.48, 7.79, repro,
2007-10-16,0.94, -1.50, 6.72, 2.12, 1.50, 7.78, repro,
2007-10-17,-0.19, -1.47, 2.11, 2.13, 1.52, 7.87, repro,
2007-10-18,0.70, -0.16, 10.35, 2.19, 1.54, 8.07, repro,
2007-10-19,0.85, -0.52, 13.41, 2.28, 1.61, 8.42, repro,
2007-10-20,0.22, -0.55, 4.46, 2.15, 1.52, 7.85, repro,
2007-10-21,0.26, 1.10, -0.56, 2.10, 1.49, 7.76, repro,
2007-10-22,0.21, 0.14, 4.39, 2.15, 1.53, 7.91, repro,
2007-10-23,-0.60, -0.74, 2.87, 2.18, 1.55, 7.99, repro,
2007-10-24,0.40, -0.87, -2.29, 2.18, 1.53, 8.06, repro,
2007-10-25,0.19, 0.42, -4.82, 2.32, 1.64, 8.77, repro,
2007-10-26,0.60, 0.39, 5.07, 2.24, 1.61, 8.21, repro,
2007-10-27,-0.78, -0.24, 3.45, 2.20, 1.57, 8.17, repro,
2007-10-28,-0.15, -0.30, 3.39, 2.16, 1.53, 7.94, repro,
2007-10-29,-0.22, -1.04, 4.59, 2.18, 1.53, 8.00, repro,
2007-10-30,-0.02, 0.69, 6.33, 2.15, 1.52, 7.98, repro,
2007-10-31,0.51, -0.07, 9.25, 2.13, 1.52, 7.88, repro,
2007-11-01,-0.01, -1.31, 11.53, 2.08, 1.47, 7.73, repro,
2007-11-02,-0.11, -0.48, 9.16, 2.11, 1.50, 7.84, repro,
2007-11-03,-0.11, -0.80, 7.89, 2.11, 1.48, 7.87, repro,
2007-11-04,-0.65, -0.19, -2.91, 2.11, 1.49, 7.91, repro,
2007-11-05,0.18, -0.30, 2.68, 2.11, 1.48, 7.83, repro,
2007-11-06,-1.17, -0.49, -0.10, 2.11, 1.50, 7.97, repro,
2007-11-07,-1.28, 0.09, 3.46, 2.07, 1.48, 7.72, repro,
2007-11-08,0.23, -0.08, 9.60, 2.13, 1.51, 7.82, repro,
2007-11-09,-0.13, 0.25, 13.30, 2.14, 1.52, 7.90, repro,
2007-11-10,-0.86, -0.06, 23.09, 2.11, 1.48, 7.80, repro,
2007-11-11,-0.27, 0.18, 16.70, 2.08, 1.49, 7.79, repro,
2007-11-12,-0.56, -0.16, 11.94, 2.11, 1.54, 7.86, repro,
2007-11-13,-2.68, 0.02, 10.45, 2.16, 1.53, 7.94, repro,
2007-11-14,-1.46, 0.16, 4.44, 2.13, 1.50, 7.85, repro,
2007-11-15,-1.07, -0.19, 8.19, 2.12, 1.48, 7.89, repro,
2007-11-16,-1.76, 0.43, 8.10, 2.09, 1.49, 7.86, repro,
2007-11-17,-2.24, 1.18, 4.28, 2.11, 1.48, 7.81, repro,
2007-11-18,-1.72, 0.29, 6.32, 2.10, 1.49, 7.82, repro,
2007-11-19,-2.10, 0.28, 2.12, 2.13, 1.50, 7.92, repro,
2007-11-20,-0.90, 0.50, 9.91, 2.62, 1.78, 9.42, repro,
2007-11-21,-2.88, 0.88, 2.04, 2.21, 1.56, 8.18, repro,
2007-11-22,-3.93, -0.32, 2.15, 2.16, 1.51, 7.92, repro,
2007-11-23,-1.59, -0.75, 9.84, 2.22, 1.57, 8.18, repro,
2007-11-24,-2.39, 1.19, 9.73, 2.16, 1.52, 8.02, repro,
2007-11-25,-0.26, -0.20, 9.29, 2.18, 1.51, 8.00, repro,
2007-11-26,-1.22, -0.31, 1.77, 2.35, 1.60, 8.87, repro,
2007-11-27,-2.08, 0.24, -5.94, 2.20, 1.52, 8.10, repro,
2007-11-28,-1.88, 1.07, -11.25, 2.18, 1.52, 8.06, repro,
2007-11-29,-2.00, 1.29, -8.69, 2.21, 1.54, 8.29, repro,
2007-11-30,0.07, 1.28, -3.98, 2.20, 1.51, 8.09, repro,
2007-12-01,-1.22, 0.24, -0.84, 2.25, 1.54, 8.28, repro,
2007-12-02,-0.73, 0.88, -8.09, 2.17, 1.51, 8.07, repro,
2007-12-03,-0.47, 0.62, -4.56, 2.29, 1.61, 8.89, repro,
2007-12-04,-0.87, 0.20, 0.40, 2.23, 1.57, 8.48, repro,
2007-12-05,-1.28, 0.45, -2.77, 2.23, 1.56, 8.52, repro,
2007-12-06,-2.77, -1.13, 1.78, 2.30, 1.61, 8.68, repro,
2007-12-07,-4.14, 1.06, -7.23, 2.26, 1.56, 8.35, repro,
2007-12-08,0.08, -0.74, -2.81, 2.25, 1.55, 8.44, repro,
2007-12-09,-0.92, 0.24, -9.45, 2.57, 1.83, 9.79, repro,
2007-12-10,-1.18, 0.23, -3.70, 2.31, 1.62, 9.00, repro,
2007-12-11,0.35, 0.80, 3.54, 2.29, 1.60, 8.55, repro,
2007-12-12,-0.90, 0.69, -4.39, 2.28, 1.59, 8.96, repro,
2007-12-13,-2.06, 0.10, -9.37, 2.23, 1.56, 8.54, repro,
2007-12-14,-1.00, 0.22, -13.24, 2.12, 1.50, 7.97, repro,
2007-12-15,0.36, -0.47, -1.86, 2.16, 1.53, 8.23, repro,
2007-12-16,-1.06, -0.14, -7.01, 2.17, 1.53, 8.24, repro,
2007-12-17,0.40, -0.17, -4.69, 2.33, 1.63, 8.82, repro,
2007-12-18,1.14, -1.09, 1.52, 2.40, 1.69, 9.19, repro,
2007-12-19,-1.73, -0.03, -10.52, 2.19, 1.55, 8.31, repro,
2007-12-20,-1.41, -0.15, -2.18, 2.21, 1.57, 8.46, repro,
2007-12-21,-0.98, 0.02, -6.13, 2.32, 1.63, 9.01, repro,
2007-12-22,-1.15, 0.84, -6.12, 2.31, 1.61, 8.74, repro,
2007-12-23,0.00, 0.22, 0.25, 2.25, 1.55, 8.65, repro,
2007-12-24,-0.93, -1.15, 9.84, 2.17, 1.53, 8.30, repro,
2007-12-25,-0.40, -1.45, -0.95, 2.16, 1.53, 8.27, repro,
2007-12-26,-0.10, -1.14, -3.68, 2.16, 1.52, 8.30, repro,
2007-12-27,-0.79, -0.63, -3.75, 2.26, 1.57, 8.50, repro,
2007-12-28,0.25, -0.57, 4.50, 2.25, 1.56, 8.56, repro,
2007-12-29,0.26, -1.61, 0.93, 2.21, 1.54, 8.22, repro,
2007-12-30,-0.46, -0.44, -8.83, 2.19, 1.54, 8.15, repro,
2007-12-31,0.42, -0.50, -9.00, 2.11, 1.51, 8.01, repro,
2008-01-01,-0.17, -0.49, -7.91, 2.15, 1.51, 8.17, repro,
2008-01-02,1.20, -0.47, 4.63, 2.13, 1.48, 8.01, repro,
2008-01-03,1.43, -0.11, 8.97, 2.10, 1.47, 7.88, repro,
2008-01-04,-0.07, -0.43, 9.23, 2.09, 1.49, 7.82, repro,
2008-01-05,1.60, 0.52, 4.64, 2.30, 1.63, 8.55, repro,
2008-01-06,-0.06, 0.31, 1.91, 2.14, 1.56, 8.16, repro,
2008-01-07,-0.30, 1.17, -3.39, 2.12, 1.49, 7.98, repro,
2008-01-08,1.00, 0.78, -4.09, 2.16, 1.49, 8.16, repro,
2008-01-09,1.78, -0.27, 2.38, 2.14, 1.50, 8.09, repro,
2008-01-10,-0.40, 0.94, -1.26, 2.10, 1.49, 7.83, repro,
2008-01-11,0.59, 0.80, -4.85, 2.11, 1.49, 7.98, repro,
2008-01-12,0.22, -0.46, -2.25, 2.12, 1.50, 7.93, repro,
2008-01-13,-0.05, 1.31, -7.33, 2.18, 1.53, 8.13, repro,
2008-01-14,0.51, -0.28, -5.14, 2.20, 1.54, 8.32, repro,
2008-01-15,0.01, 0.10, -9.80, 2.11, 1.50, 7.82, repro,
2008-01-16,-0.53, -0.88, 0.89, 2.15, 1.54, 8.16, repro,
2008-01-17,-0.61, -1.18, -4.82, 2.15, 1.51, 8.15, repro,
2008-01-18,-0.41, -1.43, -4.23, 2.14, 1.52, 8.01, repro,
2008-01-19,-0.98, 0.02, -12.38, 2.15, 1.53, 8.04, repro,
2008-01-20,-3.26, -1.46, -8.46, 2.11, 1.49, 7.87, repro,
2008-01-21,-0.04, -1.54, -7.75, 2.11, 1.49, 7.84, repro,
2008-01-22,-1.41, -0.80, -6.79, 2.09, 1.48, 7.79, repro,
2008-01-23,-1.31, -1.31, -6.62, 2.12, 1.49, 7.97, repro,
2008-01-24,0.59, -1.71, -10.19, 2.11, 1.50, 8.04, repro,
2008-01-25,0.81, -1.87, 1.28, 2.24, 1.57, 8.94, repro,
2008-01-26,0.54, -1.34, -5.08, 2.22, 1.55, 8.78, repro,
2008-01-27,0.72, -1.01, -4.09, 2.14, 1.50, 8.14, repro,
2008-01-28,1.73, 0.26, 7.13, 2.16, 1.51, 8.24, repro,
2008-01-29,-0.18, -1.04, -4.88, 2.29, 1.64, 8.74, repro,
2008-01-30,1.42, -1.87, 3.62, 2.23, 1.57, 8.54, repro,
2008-01-31,1.34, -2.50, 6.39, 2.22, 1.53, 8.69, repro,
2008-02-01,1.02, -2.43, 5.25, 2.27, 1.59, 8.67, repro,
2008-02-02,1.89, -2.18, 1.18, 2.26, 1.58, 8.70, repro,
2008-02-03,0.01, -2.41, 0.28, 2.24, 1.58, 8.40, repro,
2008-02-04,-0.25, -1.32, -2.42, 2.13, 1.50, 7.92, repro,
2008-02-05,0.61, -2.47, -1.46, 2.25, 1.58, 8.45, repro,
2008-02-06,0.62, -1.67, -3.50, 2.26, 1.59, 8.53, repro,
2008-02-07,1.29, -1.41, -7.90, 2.20, 1.54, 8.15, repro,
2008-02-08,1.64, -0.29, -13.28, 2.14, 1.49, 7.88, repro,
2008-02-09,2.09, -1.00, -8.18, 2.13, 1.50, 7.92, repro,
2008-02-10,1.07, -1.17, -1.12, 2.29, 1.62, 8.41, repro,
2008-02-11,1.83, -1.14, -2.11, 2.23, 1.57, 8.30, repro,
2008-02-12,1.49, -1.10, 1.44, 2.16, 1.54, 8.08, repro,
2008-02-13,1.90, -0.75, -2.32, 2.13, 1.48, 7.83, repro,
2008-02-14,0.78, -0.02, 7.67, 2.13, 1.49, 7.88, repro,
2008-02-15,-1.05, -0.74, 10.33, 2.20, 1.58, 8.23, repro,
2008-02-16,1.63, -1.26, 3.07, 2.11, 1.48, 7.84, repro,
2008-02-17,3.01, -1.58, -1.08, 2.12, 1.50, 7.91, repro,
2008-02-18,2.02, -1.29, 3.53, 2.18, 1.51, 8.05, repro,
2008-02-19,0.63, -1.00, -4.41, 2.22, 1.56, 8.22, repro,
2008-02-20,2.55, -2.21, 7.81, 2.11, 1.48, 7.82, repro,
2008-02-21,0.39, -0.66, 7.66, 2.11, 1.48, 7.81, repro,
2008-02-22,2.15, -1.35, -0.31, 2.12, 1.49, 7.86, repro,
2008-02-23,2.00, -1.45, -10.08, 2.11, 1.48, 7.85, repro,
2008-02-24,2.75, -1.48, -11.00, 2.10, 1.48, 7.82, repro,
2008-02-25,2.40, -0.42, -14.69, 2.12, 1.49, 7.94, repro,
2008-02-26,0.63, -0.56, -13.48, 2.12, 1.48, 7.82, repro,
2008-02-27,1.29, -0.07, -9.67, 2.13, 1.48, 7.87, repro,
2008-02-28,0.35, -1.04, -12.97, 2.33, 1.58, 8.35, repro,
2008-02-29,3.11, -0.81, -15.87, 2.35, 1.65, 8.60, repro,
2008-03-01,1.73, -0.11, -13.03, 2.22, 1.59, 8.26, repro,
2008-03-02,2.56, -1.21, -2.48, 2.11, 1.48, 7.83, repro,
2008-03-03,0.42, -0.20, -8.36, 2.10, 1.48, 7.74, repro,
2008-03-04,1.81, -1.51, -5.79, 2.13, 1.49, 7.94, repro,
2008-03-05,1.84, -2.05, -5.00, 2.42, 1.72, 9.27, repro,
2008-03-06,0.51, -1.62, 5.35, 2.10, 1.47, 7.83, repro,
2008-03-07,2.05, -1.52, 1.89, 2.11, 1.48, 7.91, repro,
2008-03-08,2.53, -1.46, 1.80, 2.23, 1.56, 8.43, repro,
2008-03-09,-0.48, -1.33, -2.44, 2.47, 1.78, 9.18, repro,
2008-03-10,0.57, -0.18, -0.83, 2.13, 1.48, 7.89, repro,
2008-03-11,-0.34, -0.70, -8.28, 2.18, 1.54, 8.14, repro,
2008-03-12,-0.95, -0.69, -10.55, 2.12, 1.50, 7.86, repro,
2008-03-13,0.32, -1.57, -14.99, 2.16, 1.54, 8.17, repro,
2008-03-14,0.23, -1.17, -23.46, 2.13, 1.49, 7.87, repro,
2008-03-15,-1.59, -0.81, -17.85, 2.25, 1.58, 8.24, repro,
2008-03-16,-1.18, 0.08, -8.76, 2.12, 1.47, 7.89, repro,
2008-03-17,-0.31, -0.18, -7.37, 2.21, 1.54, 8.12, repro,
2008-03-18,-0.99, -0.92, -7.83, 2.22, 1.55, 8.19, repro,
2008-03-19,0.13, -1.47, -9.56, 2.24, 1.56, 8.07, repro,
2008-03-20,-0.27, 0.22, -14.36, 2.21, 1.53, 8.08, repro,
2008-03-21,-0.38, 0.24, -11.74, 2.18, 1.52, 8.00, repro,
2008-03-22,-0.99, -0.22, -10.07, 2.18, 1.51, 7.96, repro,
2008-03-23,-2.11, -0.84, -7.66, 2.20, 1.55, 8.15, repro,
2008-03-24,-0.68, -0.34, -3.54, 2.16, 1.52, 7.94, repro,
2008-03-25,-1.45, -0.53, -8.79, 2.21, 1.57, 8.08, repro,
2008-03-26,-2.67, 0.11, -10.74, 2.40, 1.68, 8.70, repro,
2008-03-27,-2.70, -0.42, -9.65, 2.42, 1.75, 8.84, repro,
2008-03-28,-2.11, -0.95, -7.64, 2.35, 1.64, 8.62, repro,
2008-03-29,-1.40, -0.16, -10.72, 2.19, 1.56, 8.02, repro,
2008-03-30,-1.05, 0.13, 0.31, 2.15, 1.51, 7.92, repro,
2008-03-31,0.67, -1.19, -2.16, 2.16, 1.49, 7.86, repro,
2008-04-01,1.21, -1.78, -1.29, 2.15, 1.50, 7.86, repro,
2008-04-02,1.58, 0.65, -10.73, 2.16, 1.51, 8.02, repro,
2008-04-03,-1.57, -0.20, -4.40, 2.13, 1.50, 7.82, repro,
2008-04-04,-3.32, -1.86, -9.04, 2.20, 1.54, 7.98, repro,
2008-04-05,-1.87, -0.92, -6.69, 2.25, 1.56, 8.05, repro,
2008-04-06,-1.43, -0.87, -8.00, 2.55, 1.80, 9.03, repro,
2008-04-07,-1.96, -0.08, -8.92, 2.18, 1.52, 7.93, repro,
2008-04-08,-2.98, -0.47, -10.73, 2.19, 1.55, 8.05, repro,
2008-04-09,-1.52, -0.19, -6.96, 2.18, 1.53, 7.94, repro,
2008-04-10,-2.25, -0.85, -8.13, 2.26, 1.56, 8.00, repro,
2008-04-11,-2.04, -0.12, -14.64, 2.21, 1.51, 7.97, repro,
2008-04-12,-2.10, -0.05, -9.64, 2.33, 1.66, 8.56, repro,
2008-04-13,-1.41, -0.20, -0.26, 2.17, 1.52, 7.89, repro,
2008-04-14,-1.65, -0.01, 3.38, 2.11, 1.49, 7.75, repro,
2008-04-15,-0.75, -0.58, -1.35, 2.18, 1.54, 8.01, repro,
2008-04-16,-1.37, 0.25, -11.85, 2.33, 1.59, 8.53, repro,
2008-04-17,-1.84, 0.37, -15.54, 2.15, 1.49, 7.84, repro,
2008-04-18,-1.80, 0.53, -23.58, 2.14, 1.49, 7.83, repro,
2008-04-19,-0.29, 0.64, -16.85, 2.15, 1.52, 7.92, repro,
2008-04-20,-0.66, -0.47, -19.71, 2.17, 1.52, 8.02, repro,
2008-04-21,-0.41, 0.33, -24.43, 2.13, 1.50, 7.90, repro,
2008-04-22,0.03, -0.46, -19.11, 2.12, 1.49, 7.82, repro,
2008-04-23,-2.26, 0.29, -20.21, 2.44, 1.73, 9.08, repro,
2008-04-24,-1.25, -2.24, -7.25, 2.43, 1.68, 8.83, repro,
2008-04-25,-1.18, 0.18, -14.98, 2.13, 1.51, 7.83, repro,
2008-04-26,-2.12, -0.54, -12.12, 2.19, 1.56, 8.04, repro,
2008-04-27,-0.35, -0.93, -7.33, 2.30, 1.69, 8.49, repro,
2008-04-28,-0.46, 0.58, -14.94, 2.32, 1.62, 8.38, repro,
2008-04-29,-1.18, -0.04, -7.01, 2.27, 1.59, 8.28, repro,
2008-04-30,-0.99, 0.31, -13.92, 2.20, 1.55, 8.04, repro,
2008-05-01,-0.31, -0.14, -15.33, 2.13, 1.51, 7.83, repro,
2008-05-02,0.95, 0.21, -14.24, 2.14, 1.51, 7.82, repro,
2008-05-03,0.11, 0.69, -14.11, 2.17, 1.52, 7.92, repro,
2008-05-04,-1.14, 0.66, -17.51, 2.17, 1.51, 7.99, repro,
2008-05-05,0.58, 0.68, -17.91, 2.17, 1.51, 7.91, repro,
2008-05-06,-1.21, 0.31, -16.57, 2.20, 1.57, 8.10, repro,
2008-05-07,0.18, -0.05, -19.27, 2.14, 1.52, 7.90, repro,
2008-05-08,-0.11, 0.89, -22.07, 2.19, 1.52, 8.05, repro,
2008-05-09,-0.62, -0.00, -18.67, 2.15, 1.49, 7.88, repro,
2008-05-10,0.16, 0.20, -20.59, 2.15, 1.50, 7.93, repro,
2008-05-11,0.97, -0.59, -10.99, 2.15, 1.50, 7.89, repro,
2008-05-12,1.49, 1.63, -5.93, 2.14, 1.52, 7.91, repro,
2008-05-13,1.02, 0.56, -4.67, 2.13, 1.49, 7.79, repro,
2008-05-14,0.03, 0.04, -10.84, 2.13, 1.50, 7.81, repro,
2008-05-15,1.69, -0.79, -6.09, 2.16, 1.49, 7.87, repro,
2008-05-16,1.84, 0.08, -16.12, 2.19, 1.53, 8.04, repro,
2008-05-17,0.97, 0.29, -20.49, 2.15, 1.52, 7.94, repro,
2008-05-18,1.28, 0.38, -19.27, 2.14, 1.52, 7.86, repro,
2008-05-19,0.48, 0.06, -19.22, 2.20, 1.58, 8.08, repro,
2008-05-20,0.83, 0.02, -15.43, 2.17, 1.53, 7.89, repro,
2008-05-21,1.59, 0.62, -15.99, 2.20, 1.54, 8.05, repro,
2008-05-22,1.74, 1.12, -20.50, 2.23, 1.55, 8.12, repro,
2008-05-23,3.09, 0.46, -17.54, 2.19, 1.58, 8.12, repro,
2008-05-24,-3.96, 2.11, -26.37, 2.19, 1.52, 7.92, repro,
2008-05-25,2.63, -0.34, -14.60, 2.18, 1.54, 8.00, repro,
2008-05-26,3.19, 0.72, -16.91, 2.16, 1.50, 7.88, repro,
2008-05-27,2.68, 0.67, -21.09, 2.17, 1.51, 7.91, repro,
2008-05-28,2.78, -0.54, -19.10, 2.27, 1.63, 8.46, repro,
2008-05-29,1.79, 1.02, -19.89, 2.18, 1.54, 7.99, repro,
2008-05-30,2.25, -0.90, -9.65, 2.22, 1.57, 8.00, repro,
2008-05-31,4.21, -0.95, -11.11, 2.19, 1.55, 8.01, repro,
2008-06-01,3.15, -0.96, -6.53, 2.19, 1.52, 7.93, repro,
2008-06-02,3.98, -0.90, -0.40, 2.15, 1.52, 7.91, repro,
2008-06-03,4.40, -1.28, -1.46, 2.14, 1.53, 7.95, repro,
2008-06-04,3.29, -0.62, -5.51, 2.11, 1.50, 7.76, repro,
2008-06-05,2.99, 0.06, -0.62, 2.13, 1.50, 7.78, repro,
2008-06-06,1.31, -0.21, -5.70, 2.18, 1.53, 8.03, repro,
2008-06-07,2.30, 0.04, -6.04, 2.43, 1.66, 8.72, repro,
2008-06-08,-0.08, -0.15, -8.85, 2.19, 1.55, 8.06, repro,
2008-06-09,0.65, 0.62, -9.79, 2.14, 1.53, 7.95, repro,
2008-06-10,1.11, -0.02, -13.73, 2.11, 1.50, 7.78, repro,
2008-06-11,2.01, -0.61, -9.72, 2.15, 1.51, 7.91, repro,
2008-06-12,3.18, -0.86, -2.83, 2.18, 1.52, 8.02, repro,
2008-06-13,1.97, -0.77, -6.62, 2.13, 1.51, 7.86, repro,
2008-06-14,1.70, -0.83, -2.07, 2.16, 1.56, 7.96, repro,
2008-06-15,1.85, -1.19, -5.08, 2.24, 1.63, 8.21, repro,
2008-06-16,1.26, -0.84, -5.56, 2.17, 1.53, 7.95, repro,
2008-06-17,-1.38, 0.44, -8.65, 2.17, 1.52, 7.96, repro,
2008-06-18,1.55, -1.76, -6.40, 2.20, 1.53, 7.99, repro,
2008-06-19,-0.66, -0.84, -9.79, 2.17, 1.54, 8.00, repro,
2008-06-20,1.75, -1.25, -7.16, 2.14, 1.53, 7.88, repro,
2008-06-21,0.91, -0.93, -6.87, 2.24, 1.63, 7.84, repro,
2008-06-22,2.43, -0.24, -4.87, 2.14, 1.50, 7.84, repro,
2008-06-23,1.83, -0.67, 0.29, 2.17, 1.51, 7.99, repro,
2008-06-24,2.12, -1.15, -0.86, 2.13, 1.51, 7.85, repro,
2008-06-25,3.14, -1.42, -2.82, 2.15, 1.54, 8.05, repro,
2008-06-26,1.74, -2.13, 0.69, 2.29, 1.63, 8.51, repro,
2008-06-27,1.65, -1.25, 3.80, 2.15, 1.52, 7.92, repro,
2008-06-28,1.34, -0.32, 5.70, 2.17, 1.50, 7.87, repro,
2008-06-29,-0.20, -0.02, 7.11, 2.13, 1.50, 7.80, repro,
2008-06-30,-0.59, 0.57, -4.86, 2.14, 1.51, 7.87, repro,
2008-07-01,0.51, -0.50, -2.98, 2.11, 1.51, 7.80, repro,
2008-07-02,-1.13, -1.33, 0.79, 2.11, 1.51, 7.79, repro,
2008-07-03,0.07, -1.03, 0.97, 2.13, 1.50, 7.81, repro,
2008-07-04,-1.06, 0.40, -7.24, 2.15, 1.51, 7.87, repro,
2008-07-05,1.59, -1.19, 0.35, 2.18, 1.52, 7.89, repro,
2008-07-06,3.28, -1.80, 14.50, 2.16, 1.55, 7.90, repro,
2008-07-07,-1.15, -2.21, 10.50, 2.13, 1.51, 7.81, repro,
2008-07-08,-0.19, -0.43, 12.64, 2.16, 1.51, 7.89, repro,
2008-07-09,0.89, -0.66, 7.91, 2.16, 1.51, 7.92, repro,
2008-07-10,0.14, -1.84, 10.66, 2.18, 1.57, 8.07, repro,
2008-07-11,-0.97, -0.16, 1.55, 2.19, 1.61, 8.02, repro,
2008-07-12,-0.22, 0.05, -2.43, 2.37, 1.67, 8.66, repro,
2008-07-13,-0.91, 0.09, -0.42, 2.17, 1.53, 7.88, repro,
2008-07-14,0.15, -0.43, -2.53, 2.15, 1.51, 7.86, repro,
2008-07-15,-0.08, 0.18, 1.37, 2.13, 1.49, 7.75, repro,
2008-07-16,0.84, -0.68, 6.29, 2.11, 1.50, 7.78, repro,
2008-07-17,-0.48, -0.14, 7.36, 2.10, 1.52, 7.79, repro,
2008-07-18,-0.46, -0.15, 7.10, 2.17, 1.53, 8.26, repro,
2008-07-19,-0.12, 0.04, 6.61, 2.17, 1.52, 8.21, repro,
2008-07-20,0.63, -0.91, 16.53, 2.13, 1.48, 7.75, repro,
2008-07-21,0.25, -0.46, 9.99, 2.17, 1.53, 7.91, repro,
2008-07-22,1.11, -0.33, 0.19, 2.15, 1.54, 7.86, repro,
2008-07-23,1.46, 0.14, -4.26, 2.31, 1.64, 8.54, repro,
2008-07-24,0.74, 0.11, 1.89, 2.14, 1.50, 7.81, repro,
2008-07-25,0.12, -0.86, 1.32, 2.13, 1.49, 7.79, repro,
2008-07-26,0.09, 0.02, 3.02, 2.11, 1.50, 7.75, repro,
2008-07-27,0.67, -0.13, 6.16, 2.20, 1.60, 7.88, repro,
2008-07-28,-0.22, -0.47, 3.41, 2.18, 1.58, 7.90, repro,
2008-07-29,-1.92, -1.07, 1.30, 2.18, 1.58, 8.00, repro,
2008-07-30,2.54, -1.59, 4.28, 2.30, 1.68, 8.03, repro,
2008-07-31,0.82, -0.52, -2.25, 2.12, 1.50, 7.82, repro,
2008-08-01,-0.38, 0.72, 2.88, 2.11, 1.49, 7.74, repro,
2008-08-02,-1.54, -0.22, 7.80, 2.09, 1.51, 7.69, repro,
2008-08-03,-1.04, 0.34, -0.37, 2.16, 1.54, 8.10, repro,
2008-08-04,-1.55, 0.50, -2.47, 2.22, 1.59, 7.87, repro,
2008-08-05,-0.17, -0.62, -0.76, 2.11, 1.49, 7.74, repro,
2008-08-06,0.44, 0.13, 4.17, 2.14, 1.52, 7.94, repro,
2008-08-07,-0.04, 0.38, -4.19, 2.19, 1.55, 8.06, repro,
2008-08-08,-0.32, -1.84, 1.63, 2.20, 1.55, 8.07, repro,
2008-08-09,0.54, 0.05, -2.71, 2.26, 1.58, 8.27, repro,
2008-08-10,-0.37, 0.40, 2.42, 2.20, 1.54, 8.07, repro,
2008-08-11,-1.16, -0.34, 4.49, 2.15, 1.51, 7.92, repro,
2008-08-12,-1.47, -0.71, 3.98, 2.24, 1.60, 7.97, repro,
2008-08-13,-0.28, 0.45, 6.00, 2.23, 1.63, 8.05, repro,
2008-08-14,-1.12, 0.53, 2.44, 2.15, 1.52, 7.98, repro,
2008-08-15,-0.42, 0.12, 2.26, 2.27, 1.63, 8.09, repro,
2008-08-16,-0.31, -0.35, 0.11, 2.14, 1.50, 7.90, repro,
2008-08-17,0.64, 0.70, -2.60, 2.25, 1.59, 8.00, repro,
2008-08-18,0.54, 0.13, 6.70, 2.20, 1.56, 8.29, repro,
2008-08-19,0.62, -0.06, 9.73, 2.20, 1.54, 8.08, repro,
2008-08-20,-0.97, -0.05, 3.44, 2.16, 1.51, 7.99, repro,
2008-08-21,-1.40, -0.12, 6.11, 2.16, 1.52, 7.99, repro,
2008-08-22,-1.97, 0.65, 8.00, 2.14, 1.51, 7.93, repro,
2008-08-23,-1.06, 0.19, 4.95, 2.14, 1.50, 7.88, repro,
2008-08-24,-1.97, -0.19, 2.43, 2.15, 1.53, 8.00, repro,
2008-08-25,-1.07, -0.48, 5.39, 2.16, 1.53, 8.05, repro,
2008-08-26,-2.79, -0.69, 8.22, 2.15, 1.51, 7.94, repro,
2008-08-27,-1.76, -0.07, 1.45, 2.19, 1.54, 8.16, repro,
2008-08-28,-3.13, 0.26, 1.57, 2.21, 1.59, 8.13, repro,
2008-08-29,-1.89, 0.55, 3.81, 2.14, 1.52, 7.99, repro,
2008-08-30,-0.43, -0.25, -1.76, 2.16, 1.54, 8.07, repro,
2008-08-31,-1.35, -0.44, 1.83, 2.20, 1.53, 8.16, repro,
2008-09-01,-1.91, -0.26, 4.50, 2.17, 1.52, 8.05, repro,
2008-09-02,-1.72, 0.91, 11.03, 2.21, 1.53, 8.10, repro,
2008-09-03,-1.22, -0.04, 1.88, 2.19, 1.54, 8.10, repro,
2008-09-04,-1.48, 0.43, -0.65, 2.53, 1.73, 9.15, repro,
2008-09-05,-3.46, 0.11, 1.07, 2.18, 1.55, 8.15, repro,
2008-09-06,-2.41, 0.85, -5.47, 2.19, 1.53, 8.13, repro,
2008-09-07,-1.78, -0.61, -5.26, 2.31, 1.67, 8.18, repro,
2008-09-08,-0.77, 0.72, -1.57, 2.23, 1.56, 8.13, repro,
2008-09-09,-2.12, -0.35, 0.43, 2.18, 1.54, 8.11, repro,
2008-09-10,-1.62, -0.36, 6.41, 2.16, 1.53, 8.04, repro,
2008-09-11,-2.93, -0.39, 5.80, 2.18, 1.53, 8.06, repro,
2008-09-12,-1.44, 0.68, 2.10, 2.18, 1.54, 8.11, repro,
2008-09-13,-1.45, 0.08, 6.30, 2.17, 1.52, 8.04, repro,
2008-09-14,-0.79, -0.12, 8.02, 2.18, 1.53, 8.14, repro,
2008-09-15,-1.98, -1.83, 10.14, 2.42, 1.64, 8.80, repro,
2008-09-16,-2.78, -0.41, 3.39, 2.31, 1.60, 8.38, repro,
2008-09-17,-0.78, -1.20, 2.91, 2.24, 1.56, 8.53, repro,
2008-09-18,-1.21, -0.60, 7.19, 2.32, 1.63, 8.49, repro,
2008-09-19,-0.72, 1.02, 12.05, 2.17, 1.55, 8.05, repro,